sat.trackr.live / text

‹ back to catalog

STARLINK-30462

NORAD 57902 · 2023-146M

PAYLOAD ACTIVE UNKNOWN

§ Identity

Operator
Country
US
Launch date
2023-09-20
Launch site
AFETR
Launch vehicle
Mass (kg)
RCS (m²)

Purposes: comms

External: N2YO · Heavens-Above · Gunter

§ Orbital elements

Epoch: 2026-09-20T19:14:10.627296Z

Period
94.27 min
Inclination
43.0041°
Eccentricity
0.0001288
Mean motion
15.27573981 rev/d
Perigee alt
482.2 km
Apogee alt
484.0 km
Semi-major
6,861.2 km
B*
7.6160e-6
RAAN
292.5215°
Arg perigee
276.3414°
Mean anomaly
83.7291°
Rev number
16,685

§ Raw data

STARLINK-304621 57902U 23146M   26263.80151189 -.00000053  00000+0  76160-5 0  99942 57902  43.0041 292.5215 0001288 276.3414  83.7291 15.27573981166853

JSON: /api/v1/satellites/57902 · /tle

For live sub-satellite position, see the globe view (requires WebGL).

§ Visibility from observer

Set your observer location to see the next 7 days of passes ≥ 10°. The values pass through the URL so the page stays shareable.

No JS? Fill the form by hand. The geolocation button needs JavaScript.